User: anonymous   Login
Location: Sankt Anna
(58.3452°N, 16.7040°E)
Time: 06:24:53
(UTC+02:00)
Language:

DX 1 - Orbit

View from above orbital plane
View from above orbital plane
View from above satellite
View from above satellite

Ground track
Ground track

The orbit data is extracted from the following two-line orbital elements,

1 40071U 14037C   19145.84456887  .00000057  00000-0  14789-4 0  9992
2 40071  98.4224 298.5151 0007516 308.6274  51.4268 14.81264383263729
Epoch (UTC): 25 May 2019 20:16:10
Eccentricity: 0.0007516
inclination: 98.4224°
perigee height: 620 km
apogee height: 630 km
right ascension of ascending node: 298.5151°
argument of perigee: 308.6274°
revolutions per day: 14.81264383
mean anomaly at epoch: 51.4268°
orbit number at epoch: 26372

The dashed part of the orbit path shows where the satellite is in the earth's shadow,  

DLR